Weather History for Redmond, OR

Change the Weather History Date:

Monday, October 8, 2012

  Actual Average Record
Temperature  
Mean Temperature 49 °F 50 °F  
Max Temperature 75 °F 67 °F 87 °F (1988)
Min Temperature 22 °F 33 °F 17 °F (1961)
Degree Days  
Heating Degree Days 16 15  
Month to date heating degree days 149 111  
Since 1 July heating degree days 415 510  
Cooling Degree Days 0 0  
Month to date cooling degree days 0 0  
Year to date cooling degree days 206 222  
Moisture  
Dew Point 13 °F    
Average Humidity 30    
Maximum Humidity 50    
Minimum Humidity 9    
Precipitation  
Precipitation 0.00 in 0.02 in 0.41 in (1983)
Month to date precipitation 0.00 0.13  
Year to date precipitation 7.70 6.27  
Sea Level Pressure  
Sea Level Pressure 29.99 in    
Wind  
Wind Speed 5 mph (SSE)    
Max Wind Speed 14 mph    
Max Gust Speed 16 mph    
Visibility 10 miles    
Events      
T = Trace of Precipitation, MM = Missing Value Source: NWS Daily Summary

Daily Weather History Graph

Daily Weather History Graph

Search for Another Location

Airport:

Trip Planner

Search our weather history database for the weather conditions in past years. The results will help you decide how hot, cold, wet, or windy it might be!

Date:

Astronomy

Oct. 08, 2012 Rise Set
Actual Time 7:11 AM PDT 6:31 PM PDT
Civil Twilight 6:42 AM PDT 7:00 PM PDT
Nautical Twilight 6:08 AM PDT 7:34 PM PDT
Astronomical Twilight 5:35 AM PDT 8:07 PM PDT
Moon No Moon Rise 2:37 PM PDT (10/8)
Length of Visible Light 12h 18m
Length of Day
11h 20m
Last Quarter, 45% of the Moon is Illuminated
Oct 8
Last Quarter
Oct 15
New
Oct 21
First Quarter
Oct 29
Full
Nov 6
Last Quarter

Hourly Weather History & Observations

Time (PDT) Temp. Windchill Dew Point Humidity Pressure Visibility Wind Dir Wind Speed Gust Speed Precip Events Conditions
12:56 AM 35.1 °F 30.1 °F 12.9 °F 40% 30.02 in 10.0 mi SSE 5.8 mph - N/A   Clear
1:56 AM 30.0 °F - 10.9 °F 45% 30.02 in 10.0 mi Calm Calm - N/A   Clear
2:56 AM 25.0 °F 20.7 °F 9.0 °F 51% 30.01 in 10.0 mi ESE 3.5 mph - N/A   Clear
3:56 AM 30.9 °F 26.2 °F 10.9 °F 43% 29.99 in 10.0 mi SSE 4.6 mph - N/A   Clear
4:56 AM 28.0 °F 24.2 °F 9.0 °F 45% 29.99 in 10.0 mi South 3.5 mph - N/A   Clear
5:56 AM 32.0 °F - 10.0 °F 40% 29.99 in 10.0 mi Calm Calm - N/A   Clear
6:56 AM 30.0 °F 26.5 °F 10.9 °F 45% 30.01 in 10.0 mi SSE 3.5 mph - N/A   Clear
7:56 AM 32.0 °F - 10.9 °F 42% 30.03 in 10.0 mi Calm Calm - N/A   Clear
8:56 AM 45.0 °F 40.6 °F 10.9 °F 25% 30.02 in 10.0 mi SE 8.1 mph - N/A   Clear
9:56 AM 50.0 °F - 12.0 °F 22% 30.01 in 10.0 mi SSE 4.6 mph - N/A   Clear
10:56 AM 57.0 °F - 10.9 °F 16% 29.99 in 10.0 mi South 4.6 mph - N/A   Clear
11:56 AM 63.0 °F - 9.0 °F 12% 29.97 in 10.0 mi Variable 3.5 mph - N/A   Clear
1:56 PM 72.0 °F - 12.0 °F 10% 29.93 in 10.0 mi NW 5.8 mph - N/A   Clear
2:56 PM 73.9 °F - 10.0 °F 9% 29.92 in 10.0 mi Variable 5.8 mph - N/A   Clear
3:56 PM 73.0 °F - 12.9 °F 10% 29.91 in 10.0 mi NNW 10.4 mph - N/A   Clear
4:56 PM 72.0 °F - 12.9 °F 10% 29.92 in 10.0 mi North 10.4 mph - N/A   Clear
7:56 PM 57.9 °F - 18.0 °F 21% 29.97 in 10.0 mi WNW 8.1 mph - N/A   Clear
8:56 PM 57.0 °F - 19.0 °F 23% 29.97 in 10.0 mi NW 8.1 mph - N/A   Clear
9:56 PM 41.0 °F - 15.1 °F 35% 30.01 in 10.0 mi Calm Calm - N/A   Clear
10:56 PM 39.0 °F 36.8 °F 17.1 °F 41% 30.02 in 10.0 mi SSE 3.5 mph - N/A   Clear
11:56 PM 37.9 °F 35.5 °F 19.9 °F 48% 30.01 in 10.0 mi South 3.5 mph - N/A   Clear